#timestamp,LO_Frequency,Hit,StdDev 
1667977215.1,286047014.1,P
1667977216.0,286047014.1,P
1667977235.8,286047016.8,P
1667977255.7,286047013.2,Y
1667977275.5,286046999.7,P
1667977295.3,286047001.9,N
1667977315.2,286047000.2,N
1667977335.0,286047000.0,N
1667977335.9,286047000.0,N
1667977355.8,286046998.4,N
1667977375.6,286047000.5,N
1667977395.4,286047000.9,N
1667977415.3,286047002.5,N
1667977435.1,286047000.1,N
1667977455.8,286047002.5,N
1667977475.7,286047005.1,N
1667977495.5,286047006.4,N
1667977515.4,286047005.7,N
1667977535.2,286047003.2,N
1667977555.0,286047003.9,N
1667977555.9,286047003.9,N
1667977575.8,286047000.0,N
1667977595.6,286046996.2,N
1667977615.5,286046985.8,Y
1667977635.3,286046979.3,P
1667977655.1,286046975.7,N
1667977675.9,286046983.5,N
1667977695.7,286046982.2,N
1667977715.5,286046984.4,N
1667977735.4,286046987.6,N
1667977755.2,286046984.2,N
1667977775.1,286046986.2,N
1667977776.0,286046986.2,N
1667977795.8,286046991.5,N
1667977815.6,286046987.4,N
1667977835.5,286046984.9,N
1667977855.3,286046989.3,N
1667977875.1,286046987.3,N
1667977895.9,286046988.9,N
1667977915.7,286046992.4,N
1667977935.6,286046991.7,N
1667977955.4,286046991.4,N
1667977975.2,286046990.3,N
1667977995.1,286046991.1,N
1667977996.0,286046991.1,N
1667978015.8,286046994.2,N
1667978035.6,286046998.0,N
1667978055.5,286046997.4,N
1667978075.3,286047000.9,N
1667978095.2,286047003.0,N
1667978115.9,286047003.7,N
1667978135.7,286047005.0,N
1667978155.6,286047005.9,N
1667978175.4,286047007.6,N
1667978195.2,286047007.3,N
1667978215.1,286047010.3,N
1667978216.0,286047010.3,N
1667978235.8,286047009.5,N
1667978255.7,286047014.0,N
1667978275.5,286047016.9,N
1667978295.3,286047017.8,N
1667978315.2,286047030.0,Y
1667978335.0,286047035.0,P
1667978335.9,286047035.0,N
1667978355.8,286047045.9,N
1667978375.6,286047051.4,N
1667978395.5,286047056.0,Y
1667978415.3,286047024.0,P
1667978435.1,286047027.6,P
1667978455.9,286047027.0,P
1667978475.7,286047028.3,Y
1667978495.6,286046998.6,P
1667978515.4,286046997.2,N
1667978535.2,286046995.7,N
1667978555.1,286046992.0,N
1667978556.0,286046992.0,N
1667978575.8,286046988.5,N
1667978595.7,286046991.4,N
1667978615.5,286046989.1,N
1667978635.3,286046988.1,N
1667978655.2,286046984.9,N
1667978675.9,286046981.0,N
1667978695.7,286046980.9,N
1667978715.6,286046986.5,N
1667978735.4,286046990.5,N
1667978755.2,286046997.7,N
1667978775.1,286047002.0,N
1667978776.0,286047002.0,N
1667978795.8,286047009.2,N
1667978815.7,286047014.9,N
1667978835.5,286047019.7,N
1667978855.3,286047019.2,N
1667978875.2,286047022.4,N
1667978895.0,286047029.8,N
1667978895.9,286047029.8,N
1667978915.8,286047031.7,N
1667978935.6,286047036.4,N
1667978955.5,286047035.2,N
1667978975.3,286047034.8,N
1667978995.1,286047033.8,N
1667979015.9,286047032.8,N
1667979035.7,286047030.0,N
1667979055.6,286047025.5,N
1667979075.4,286047023.0,N
1667979095.2,286047021.6,N
1667979115.1,286047021.3,N
1667979116.0,286047021.3,N
1667979135.8,286047021.3,N
1667979155.7,286047026.2,N
1667979175.5,286047027.9,N
1667979195.3,286047025.8,N
1667979215.2,286047025.7,N
1667979235.0,286047029.2,N
1667979235.9,286047029.2,N
1667979255.7,286047032.9,N
1667979275.6,286047035.9,Y
1667979295.4,286047010.0,P
1667979315.3,286047009.3,N
1667979335.1,286047013.2,N
1667979355.8,286047018.5,Y
1667979375.7,286047003.1,P
1667979395.5,286047007.2,N
1667979415.4,286047004.3,N
1667979435.2,286046998.7,N
1667979455.0,286046994.9,N
1667979455.9,286046994.9,N
1667979475.8,286046993.3,N
1667979495.6,286046990.3,N
1667979515.4,286046991.4,N
1667979535.3,286046988.9,N
1667979555.1,286046985.6,N
1667979575.9,286046985.1,N
1667979595.7,286046985.6,N
1667979615.5,286046988.2,N
1667979635.4,286046987.0,N
1667979655.2,286046990.9,N
1667979675.0,286046992.4,N
1667979675.9,286046992.4,N
1667979695.8,286046996.3,N
1667979715.6,286046993.4,N
1667979735.5,286046991.2,N
1667979755.3,286046988.1,N
1667979775.1,286046981.2,N
1667979795.9,286046972.9,Y
1667979815.7,286046973.0,P
1667979835.6,286046968.2,P
1667979855.4,286046968.4,N
1667979875.2,286046960.2,Y
1667979895.1,286046982.7,P
1667979896.0,286046982.7,P
1667979915.8,286046977.6,P
1667979935.7,286046976.7,Y
1667979955.5,286046993.1,P
1667979975.3,286046990.9,N
1667979995.2,286046993.0,N
1667980015.9,286046987.4,N
1667980035.7,286046983.1,Y
1667980055.6,286046987.2,P
1667980075.4,286046987.9,P
1667980095.3,286046983.0,P
1667980115.1,286046981.2,Y
1667980116.0,286046981.2,P
1667980135.8,286046990.8,P
1667980155.7,286046991.3,N
1667980175.5,286046983.9,Y
1667980195.3,286046995.1,P
1667980215.2,286046998.6,N
1667980235.0,286046997.5,N
1667980235.9,286046997.5,N
1667980255.8,286047000.3,N
1667980305.6,286046996.2,E
1667980315.5,286046992.3,N
1667980335.4,286046993.3,P
1667980355.2,286046995.2,P
1667980375.1,286046993.3,Y
1667980376.0,286046993.3,P
1667980395.8,286046998.7,P
1667980415.6,286046995.6,N
1667980435.5,286046990.7,Y
1667980455.3,286046990.7,P
1667980475.1,286046988.7,P
1667980495.9,286046987.2,P
1667980515.7,286046986.6,Y
1667980535.6,286046987.3,P
1667980555.4,286046980.7,P
1667980575.2,286046980.1,P
1667980595.1,286046985.2,Y
1667980596.0,286046985.2,P
1667980615.8,286047004.3,P
1667980635.7,286047000.5,N
1667980655.5,286047002.1,N
1667980675.3,286047005.9,N
1667980695.2,286047002.3,N
1667980715.9,286047000.0,N
1667980735.7,286046998.9,N
1667980755.6,286046995.7,N
1667980775.4,286046996.0,N
1667980795.2,286046994.8,N
